Regional Weather Roundup
Issued by NWS

Home | Current Version | Previous Version | Text Only | Print | Product List | Glossary On
Versions: 1 2 3 4 5 6 7 8 9 10 11 12 13 14 15 16 17 18 19 20 21 22 23 24 25 26 27 28 29 30 31 32 33 34 35 36 37 38 39 40 41 42 43 44 45 46 47 48 49 50
000
ASUS45 KCYS 271910
RWRWY

WYOMING REGIONAL WEATHER ROUNDUP
NATIONAL WEATHER SERVICE CHEYENNE WY
100 PM MDT WED AUG 27 2014

NOTE:  "FAIR" INDICATES FEW OR NO CLOUDS BELOW 12,000 FEET
WITH NO SIGNIFICANT WEATHER AND/OR OBSTRUCTIONS TO VISIBILITY.

WYZ001-272000-
YELLOWSTONE NATIONAL PARK

CITY           SKY/WX    TMP DP  RH WIND       PRES   REMARKS
LK YELLOWSTONE   N/A     61  42  49 VRB5      30.35F
W YELLOWSTONE  NOT AVBL

$$
WYZ002>013-054>058-071-098>099-272000-
NORTHERN WYOMING

CITY           SKY/WX    TMP DP  RH WIND       PRES   REMARKS
JACKSON        NOT AVBL
CODY           PTSUNNY   73  43  33 S3        30.16F
GREYBULL       CLOUDY    75  51  43 SE9       30.10F
WORLAND        CLOUDY    70  52  52 SW3       30.13F
SHERIDAN       CLOUDY    80  51  36 VRB3      30.10F
BUFFALO        CLOUDY    74  50  42 S12       30.17F
GILLETTE       CLOUDY    77  55  46 SE6       30.13F
HULETT         FAIR      77  46  33 MISG      30.14
NEWCASTLE      FAIR      77  54  44 MISG      30.13

$$
WYZ014>020-022>026-101>103-272000-
CENTRAL WYOMING

CITY           SKY/WX    TMP DP  RH WIND       PRES   REMARKS
BIG PINEY      CLOUDY    56  49  77 S6        30.33F
PINEDALE       CLOUDY    54  45  71 SE6       30.34F
DUBOIS         CLOUDY    63  37  39 CALM      30.27F
LANDER         LGT RAIN  56  53  90 VRB3      30.23S FOG
RIVERTON       LGT RAIN  56  54  93 S12       30.24S
CASPER         LGT RAIN  59  56  89 SW6       30.21F
DOUGLAS        LGT RAIN  62  60  93 NW9       30.18F

$$
WYZ021-027>030-104>119-272000-
SOUTHERN WYOMING

CITY           SKY/WX    TMP DP  RH WIND       PRES   REMARKS
EVANSTON       CLOUDY    57  47  69 N8        30.34S
KEMMERER       DRIZZLE   54  50  87 SW3       30.35F
FORT BRIDGER   CLOUDY    56  53  89 N6        30.37S
ROCK SPRINGS   CLOUDY    55  47  74 N13       30.31S
DIXON          CLOUDY    58  51  80 NW3       30.30F
RAWLINS        CLOUDY    58  50  75 W14       30.28F
SARATOGA       CLOUDY    59  46  63 W14       30.29F
LARAMIE        PTSUNNY   62  48  60 NW12      30.26S
CHEYENNE       CLOUDY    61  55  81 N7        30.22S
TORRINGTON     RAIN      58  58 100 NE3       30.13F FOG
PINE BLUFFS    CLOUDY    61  55  82 NW18      30.18S

$$



USA.gov is the U.S. government's official web portal to all federal, state and local government web resources and services.